Location: *
(48.8667°N, 2.3331°E)
Time: 11:09:26
(UTC+00:00)

Cosmos 2322 Rocket - Pass Details

Date: 09 April 2020
Orbit: 834 x 849 km, 71.0° (Epoch: 25 May)

Event Time Altitude Azimuth Distance (km) Brightness Sun altitude
Rises 21:34:21 0° 335° (NNW) 3,408 6.6 -25.6°
Reaches altitude 10° 21:37:17 10° 349° (N) 2,467 5.4 -25.9°
Maximum altitude 21:41:52 25° 44° (NE) 1,646 3.8 -26.4°
Enters shadow 21:43:02 23° 62° (ENE) 1,708 3.7 -26.5°
